Time,TemperatureF,DewpointF,PressureIn,WindDirection,WindDirectionDegrees,WindSpeedMPH,WindSpeedGustMPH,Humidity,HourlyPrecipIn,Conditions,Clouds,dailyrainin,SoftwareType,DateUTC
2013-03-27 00:06:00,36.2,21.6,29.67,NW,313,13.0,13.0,55,0.00,,,0.00,Wunderground v.1.15,2013-03-27 04:06:00,
2013-03-27 00:16:00,35.9,21.3,29.67,NW,313,10.0,25.0,55,0.00,,,0.00,Wunderground v.1.15,2013-03-27 04:16:00,
2013-03-27 00:26:00,35.6,21.4,29.67,WNW,283,8.0,8.0,56,0.00,,,0.00,Wunderground v.1.15,2013-03-27 04:26:00,
2013-03-27 01:36:00,34.3,21.4,29.67,WNW,293,8.0,10.0,59,0.00,,,0.00,Wunderground v.1.15,2013-03-27 05:36:00,
2013-03-27 01:46:00,34.6,21.3,29.67,NW,321,8.0,8.0,58,0.00,,,0.00,Wunderground v.1.15,2013-03-27 05:46:00,
2013-03-27 02:06:00,34.0,21.2,29.67,West,271,4.0,4.0,59,0.00,,,0.00,Wunderground v.1.15,2013-03-27 06:06:00,
2013-03-27 02:36:00,34.0,21.2,29.67,WNW,287,4.0,10.0,59,0.00,,,0.00,Wunderground v.1.15,2013-03-27 06:36:00,
2013-03-27 02:46:00,34.3,21.0,29.66,West,278,7.0,7.0,58,0.00,,,0.00,Wunderground v.1.15,2013-03-27 06:46:00,
2013-03-27 02:56:00,34.3,21.0,29.66,WNW,300,8.0,11.0,58,0.00,,,0.00,Wunderground v.1.15,2013-03-27 06:56:00,
2013-03-27 03:36:00,34.6,20.9,29.65,West,279,12.0,12.0,57,0.00,,,0.00,Wunderground v.1.15,2013-03-27 07:36:00,
2013-03-27 03:46:00,34.3,21.0,29.65,West,275,12.0,12.0,58,0.00,,,0.00,Wunderground v.1.15,2013-03-27 07:46:00,
2013-03-27 03:56:00,34.1,20.9,29.65,West,275,11.0,21.0,58,0.00,,,0.00,Wunderground v.1.15,2013-03-27 07:56:00,
2013-03-27 04:36:00,34.0,21.2,29.65,NW,304,12.0,12.0,59,0.00,,,0.00,Wunderground v.1.15,2013-03-27 08:36:00,
2013-03-27 04:46:00,34.0,20.8,29.65,NW,304,9.0,23.0,58,0.00,,,0.00,Wunderground v.1.15,2013-03-27 08:46:00,
2013-03-27 04:56:00,33.7,20.9,29.65,WNW,300,8.0,23.0,59,0.00,,,0.00,Wunderground v.1.15,2013-03-27 08:56:00,
2013-03-27 05:36:00,35.3,22.0,29.65,WNW,293,11.0,23.0,58,0.00,,,0.00,Wunderground v.1.15,2013-03-27 09:36:00,
2013-03-27 05:46:00,35.8,22.0,29.65,WNW,291,11.0,11.0,57,0.00,,,0.00,Wunderground v.1.15,2013-03-27 09:46:00,
2013-03-27 05:56:00,35.9,21.7,29.65,WNW,292,7.0,23.0,56,0.00,,,0.00,Wunderground v.1.15,2013-03-27 09:56:00,
2013-03-27 06:36:00,35.5,22.6,29.66,WNW,299,9.0,9.0,59,0.00,,,0.00,Wunderground v.1.15,2013-03-27 10:36:00,
2013-03-27 06:46:00,35.3,22.4,29.66,West,280,9.0,9.0,59,0.00,,,0.00,Wunderground v.1.15,2013-03-27 10:46:00,
2013-03-27 06:56:00,35.2,22.7,29.66,WNW,286,8.0,17.0,60,0.00,,,0.00,Wunderground v.1.15,2013-03-27 10:56:00,
2013-03-27 07:26:00,36.0,22.6,29.67,NW,308,6.0,6.0,58,0.00,,,0.00,Wunderground v.1.15,2013-03-27 11:26:00,
2013-03-27 07:36:00,36.6,22.4,29.67,West,267,6.0,20.0,56,0.00,,,0.00,Wunderground v.1.15,2013-03-27 11:36:00,
2013-03-27 07:46:00,36.9,23.1,29.67,WNW,289,7.0,7.0,57,0.00,,,0.00,Wunderground v.1.15,2013-03-27 11:46:00,
2013-03-27 07:56:00,37.5,22.8,29.67,WNW,287,10.0,20.0,55,0.00,,,0.00,Wunderground v.1.15,2013-03-27 11:56:00,
2013-03-27 08:36:00,38.8,22.7,29.67,West,265,8.0,20.0,52,0.00,,,0.00,Wunderground v.1.15,2013-03-27 12:36:00,
2013-03-27 08:46:00,39.5,22.8,29.67,West,264,9.0,20.0,51,0.00,,,0.00,Wunderground v.1.15,2013-03-27 12:46:00,
2013-03-27 08:56:00,39.9,23.2,29.67,NW,318,8.0,20.0,51,0.00,,,0.00,Wunderground v.1.15,2013-03-27 12:56:00,
2013-03-27 09:36:00,40.2,23.0,29.69,WNW,294,9.0,20.0,50,0.00,,,0.00,Wunderground v.1.15,2013-03-27 13:36:00,
2013-03-27 09:46:00,40.6,23.4,29.68,WNW,290,8.0,8.0,50,0.00,,,0.00,Wunderground v.1.15,2013-03-27 13:46:00,
2013-03-27 09:56:00,42.1,24.3,29.68,WSW,240,2.0,2.0,49,0.00,,,0.00,Wunderground v.1.15,2013-03-27 13:56:00,
2013-03-27 10:36:00,43.5,23.5,29.68,North,350,3.0,14.0,45,0.00,,,0.00,Wunderground v.1.15,2013-03-27 14:36:00,
2013-03-27 10:46:00,44.1,22.4,29.68,WNW,286,4.0,14.0,42,0.00,,,0.00,Wunderground v.1.15,2013-03-27 14:46:00,
2013-03-27 10:56:00,44.3,22.1,29.68,WNW,290,5.0,5.0,41,0.00,,,0.00,Wunderground v.1.15,2013-03-27 14:56:00,
2013-03-27 11:06:00,44.2,21.4,29.68,NNW,332,4.0,14.0,40,0.00,,,0.00,Wunderground v.1.15,2013-03-27 15:06:00,
2013-03-27 11:16:00,44.2,20.8,29.68,North,360,4.0,4.0,39,0.00,,,0.00,Wunderground v.1.15,2013-03-27 15:16:00,
2013-03-27 11:26:00,44.1,20.7,29.68,NNE,17,5.0,14.0,39,0.00,,,0.00,Wunderground v.1.15,2013-03-27 15:26:00,
2013-03-27 11:56:00,44.5,21.0,29.68,NNW,345,4.0,16.0,39,0.00,,,0.00,Wunderground v.1.15,2013-03-27 15:56:00,
2013-03-27 12:06:00,44.2,23.1,29.68,WNW,292,7.0,7.0,43,0.00,,,0.00,Wunderground v.1.15,2013-03-27 16:06:00,
2013-03-27 12:16:00,45.1,22.2,29.68,WNW,284,3.0,3.0,40,0.00,,,0.00,Wunderground v.1.15,2013-03-27 16:16:00,
2013-03-27 12:26:00,44.9,22.0,29.68,North,360,4.0,16.0,40,0.00,,,0.00,Wunderground v.1.15,2013-03-27 16:26:00,
2013-03-27 13:06:00,43.8,22.7,29.68,ENE,59,6.0,6.0,43,0.00,,,0.00,Wunderground v.1.15,2013-03-27 17:06:00,
2013-03-27 13:16:00,43.9,24.9,29.68,NW,306,4.0,17.0,47,0.00,,,0.00,Wunderground v.1.15,2013-03-27 17:16:00,
2013-03-27 14:06:00,42.2,24.9,29.68,NW,308,10.0,25.0,50,0.00,,,0.00,Wunderground v.1.15,2013-03-27 18:06:00,
2013-03-27 14:16:00,41.9,24.6,29.68,NW,313,11.0,11.0,50,0.00,,,0.00,Wunderground v.1.15,2013-03-27 18:16:00,
2013-03-27 14:26:00,42.3,25.0,29.68,West,281,8.0,25.0,50,0.00,,,0.00,Wunderground v.1.15,2013-03-27 18:26:00,
2013-03-27 15:36:00,41.1,25.7,29.70,West,266,9.0,19.0,54,0.00,,,0.00,Wunderground v.1.15,2013-03-27 19:36:00,
2013-03-27 15:46:00,41.1,25.7,29.70,NW,324,7.0,7.0,54,0.00,,,0.00,Wunderground v.1.15,2013-03-27 19:46:00,
2013-03-27 15:56:00,41.1,26.1,29.70,NW,321,5.0,19.0,55,0.00,,,0.00,Wunderground v.1.15,2013-03-27 19:56:00,
2013-03-27 16:36:00,40.9,26.4,29.70,West,265,7.0,16.0,56,0.00,,,0.00,Wunderground v.1.15,2013-03-27 20:36:00,
2013-03-27 16:46:00,40.8,26.7,29.71,West,281,7.0,16.0,57,0.00,,,0.00,Wunderground v.1.15,2013-03-27 20:46:00,
2013-03-27 17:36:00,40.1,26.9,29.73,WNW,302,5.0,5.0,59,0.00,,,0.00,Wunderground v.1.15,2013-03-27 21:36:00,
2013-03-27 17:46:00,39.9,26.7,29.73,NW,312,4.0,4.0,59,0.00,,,0.00,Wunderground v.1.15,2013-03-27 21:46:00,
2013-03-27 17:56:00,40.2,26.6,29.73,NNW,334,3.0,15.0,58,0.00,,,0.00,Wunderground v.1.15,2013-03-27 21:56:00,
2013-03-27 18:36:00,39.9,26.7,29.75,NNE,26,0.0,7.0,59,0.00,,,0.00,Wunderground v.1.15,2013-03-27 22:36:00,
2013-03-27 19:36:00,38.8,26.9,29.77,NW,310,5.0,10.0,62,0.00,,,0.00,Wunderground v.1.15,2013-03-27 23:36:00,
2013-03-27 19:46:00,38.8,26.5,29.77,NNE,26,4.0,10.0,61,0.00,,,0.00,Wunderground v.1.15,2013-03-27 23:46:00,
2013-03-27 19:56:00,38.8,26.5,29.77,NNW,340,2.0,2.0,61,0.00,,,0.00,Wunderground v.1.15,2013-03-27 23:56:00,
2013-03-27 20:06:00,38.6,26.7,29.78,WNW,297,2.0,11.0,62,0.00,,,0.00,Wunderground v.1.15,2013-03-28 00:06:00,
2013-03-27 20:16:00,38.5,26.6,29.78,West,269,3.0,11.0,62,0.00,,,0.00,Wunderground v.1.15,2013-03-28 00:16:00,
2013-03-27 20:26:00,38.3,26.8,29.78,NW,312,3.0,11.0,63,0.00,,,0.00,Wunderground v.1.15,2013-03-28 00:26:00,
2013-03-27 21:06:00,37.8,28.2,29.79,WSW,257,5.0,11.0,68,0.00,,,0.00,Wunderground v.1.15,2013-03-28 01:06:00,
2013-03-27 21:36:00,37.3,28.4,29.80,NW,311,3.0,3.0,70,0.00,,,0.00,Wunderground v.1.15,2013-03-28 01:36:00,
2013-03-27 21:46:00,37.3,28.8,29.80,West,277,4.0,14.0,71,0.00,,,0.00,Wunderground v.1.15,2013-03-28 01:46:00,
2013-03-27 21:56:00,37.2,29.0,29.80,NW,312,3.0,3.0,72,0.00,,,0.00,Wunderground v.1.15,2013-03-28 01:56:00,
2013-03-27 22:05:00,36.9,29.4,29.81,North,355,3.0,10.0,74,0.00,,,0.00,Wunderground v.1.15,2013-03-28 02:05:00,
2013-03-27 22:16:00,36.8,29.6,29.81,North,355,3.0,3.0,75,0.00,,,0.00,Wunderground v.1.15,2013-03-28 02:16:00,
2013-03-27 22:26:00,36.6,29.7,29.81,NW,318,3.0,10.0,76,0.00,,,0.00,Wunderground v.1.15,2013-03-28 02:26:00,
2013-03-27 23:06:00,36.0,29.8,29.81,WNW,285,2.0,6.0,78,0.00,,,0.00,Wunderground v.1.15,2013-03-28 03:06:00,
2013-03-27 23:16:00,36.0,30.1,29.81,WNW,297,2.0,6.0,79,0.00,,,0.00,Wunderground v.1.15,2013-03-28 03:16:00,
2013-03-27 23:26:00,35.8,30.2,29.81,WNW,297,1.0,1.0,80,0.00,,,0.00,Wunderground v.1.15,2013-03-28 03:26:00,
2013-03-27 23:36:00,35.3,30.1,29.81,WNW,297,0.0,5.0,81,0.00,,,0.00,Wunderground v.1.15,2013-03-28 03:36:00,